ACA1420 CYUL-MUCC

Flight info

Callsign ACA1420
Flight time N/A
Altitude 38000
Route FAWNS DCT BUGSY DCT SYR J59 PSB Q71 EMNEM Q103 PERKS/N0491F400 Q103 SLOJO/N0486F390 DCT EFFAY/N0485F400 Q83 JEVED Q97 DEBRL/N0485F390 Q97 TOVAR Y297 URSUS RESEB2
Aircraft B789/H-SDE1E2E3FGHIJ2J3J4J5M1RWXY/LB1D1

Departure

Time 2026-04-30 20:28
Airport Montreal / Pierre Elliott Trudeau International Airport (CYUL)

Arrival

Time N/A
Airport Jardines Del Rey Airport (MUCC)
Time Latitude Longitude Altitude Speed Heading
2026-04-30 20:07 45.45988 -73.75544 109 ft 0 kts 176°
2026-04-30 20:08 45.45989 -73.75544 109 ft 0 kts 176°
2026-04-30 20:12 45.46023 -73.75546 108 ft 4 kts 175°
2026-04-30 20:12 45.46047 -73.75554 107 ft 4 kts 141°
2026-04-30 20:12 45.46060 -73.75583 107 ft 4 kts 97°
2026-04-30 20:13 45.46061 -73.75603 106 ft 2 kts 88°
2026-04-30 20:13 45.46062 -73.75569 106 ft 2 kts 88°
2026-04-30 20:13 45.46063 -73.75566 106 ft 2 kts 88°
2026-04-30 20:15 45.46063 -73.75558 108 ft 3 kts 88°
2026-04-30 20:15 45.46064 -73.75495 109 ft 8 kts 88°
2026-04-30 20:15 45.46069 -73.75406 109 ft 10 kts 76°
2026-04-30 20:16 45.46114 -73.75375 106 ft 7 kts 356°
2026-04-30 20:16 45.46139 -73.75354 107 ft 4 kts 50°
2026-04-30 20:16 45.46143 -73.75308 107 ft 7 kts 88°
2026-04-30 20:16 45.46146 -73.75202 107 ft 14 kts 88°
2026-04-30 20:17 45.46150 -73.75068 109 ft 13 kts 87°
2026-04-30 20:17 45.46153 -73.74940 110 ft 13 kts 88°
2026-04-30 20:17 45.46158 -73.74804 109 ft 14 kts 88°
2026-04-30 20:17 45.46162 -73.74656 109 ft 16 kts 89°
2026-04-30 20:18 45.46131 -73.74541 107 ft 11 kts 112°
2026-04-30 20:18 45.46130 -73.74430 109 ft 12 kts 88°
2026-04-30 20:18 45.46133 -73.74308 109 ft 13 kts 87°
2026-04-30 20:18 45.46137 -73.74179 109 ft 13 kts 88°
2026-04-30 20:19 45.46144 -73.74065 107 ft 10 kts 74°
2026-04-30 20:19 45.46170 -73.74018 110 ft 9 kts 44°
2026-04-30 20:19 45.46235 -73.73932 110 ft 10 kts 43°
2026-04-30 20:19 45.46286 -73.73865 111 ft 10 kts 43°
2026-04-30 20:20 45.46335 -73.73800 110 ft 9 kts 43°
2026-04-30 20:20 45.46383 -73.73739 111 ft 9 kts 42°
2026-04-30 20:20 45.46432 -73.73675 111 ft 10 kts 42°
2026-04-30 20:20 45.46483 -73.73608 110 ft 10 kts 43°
2026-04-30 20:21 45.46536 -73.73537 112 ft 11 kts 43°
2026-04-30 20:21 45.46592 -73.73463 112 ft 11 kts 42°
2026-04-30 20:21 45.46650 -73.73387 114 ft 12 kts 42°
2026-04-30 20:21 45.46713 -73.73305 114 ft 12 kts 42°
2026-04-30 20:22 45.46774 -73.73225 115 ft 12 kts 43°
2026-04-30 20:22 45.46835 -73.73146 115 ft 12 kts 43°
2026-04-30 20:22 45.46893 -73.73069 118 ft 11 kts 42°
2026-04-30 20:22 45.46951 -73.72994 117 ft 11 kts 42°
2026-04-30 20:23 45.47007 -73.72921 120 ft 11 kts 43°
2026-04-30 20:23 45.47067 -73.72843 122 ft 12 kts 43°
2026-04-30 20:23 45.47131 -73.72757 119 ft 13 kts 43°
2026-04-30 20:23 45.47201 -73.72663 119 ft 14 kts 44°
2026-04-30 20:24 45.47276 -73.72561 120 ft 15 kts 41°
2026-04-30 20:24 45.47359 -73.72458 121 ft 16 kts 42°
2026-04-30 20:24 45.47442 -73.72350 124 ft 16 kts 43°
2026-04-30 20:24 45.47524 -73.72243 121 ft 16 kts 43°
2026-04-30 20:25 45.47682 -73.72034 122 ft 15 kts 43°
2026-04-30 20:25 45.47757 -73.71936 127 ft 15 kts 42°
2026-04-30 20:26 45.47873 -73.71759 127 ft 9 kts 86°
2026-04-30 20:26 45.47813 -73.71630 124 ft 8 kts 133°
2026-04-30 20:26 45.47775 -73.71575 126 ft 7 kts 134°
2026-04-30 20:27 45.47702 -73.71606 126 ft 7 kts 223°
2026-04-30 20:27 45.47677 -73.71638 129 ft 23 kts 223°
2026-04-30 20:28 45.46683 -73.72943 128 ft 164 kts 224°
2026-04-30 20:28 45.44858 -73.75149 2096 ft 172 kts 224°
2026-04-30 20:29 45.42998 -73.77337 3533 ft 177 kts 224°
2026-04-30 20:30 45.39666 -73.80992 4478 ft 256 kts 204°
2026-04-30 20:30 45.34849 -73.84482 7152 ft 264 kts 208°
2026-04-30 20:31 45.29833 -73.87946 9883 ft 272 kts 208°
2026-04-30 20:32 45.24179 -73.91878 10731 ft 340 kts 207°
2026-04-30 20:32 45.19862 -73.94868 12195 ft 348 kts 207°
2026-04-30 20:33 45.17709 -73.96362 12956 ft 350 kts 206°
2026-04-30 20:33 45.13286 -73.99421 14345 ft 356 kts 206°
2026-04-30 20:33 45.11041 -74.00972 15004 ft 359 kts 206°
2026-04-30 20:34 45.06511 -74.04099 16270 ft 365 kts 205°
2026-04-30 20:34 45.01891 -74.07280 17462 ft 373 kts 205°
2026-04-30 20:35 44.99514 -74.08748 18072 ft 375 kts 197°
2026-04-30 20:35 44.96951 -74.09490 18598 ft 377 kts 188°
2026-04-30 20:35 44.91708 -74.10480 19603 ft 383 kts 188°
2026-04-30 20:36 44.89057 -74.10974 20097 ft 386 kts 188°
2026-04-30 20:36 44.86389 -74.11481 20589 ft 388 kts 188°